Regional Weather Roundup
Issued by NWS

Home | Current Version | Previous Version | Graphics & Text | Print | Product List | Glossary On
Versions: 1 2 3 4 5 6 7 8 9 10 11 12 13 14 15 16 17 18 19 20 21 22 23 24 25 26 27 28 29 30 31 32 33 34 35 36 37 38 39 40 41 42 43 44 45 46 47 48 49 50
000
ASUS43 KOAX 060802
RWRNE

WEATHER ROUNDUP FOR NEBRASKA
NATIONAL WEATHER SERVICE OMAHA NE
300 AM CDT WED MAY 06 2015

NOTES: SATELLITE DATA IS BEING USED TO AUGMENT CLOUD COVER ABOVE
       12000 FEET.
       "FAIR" INDICATES FEW OR NO CLOUDS BELOW 12,000 FEET WITH NO
       SIGNIFICANT WEATHER AND/OR OBSTRUCTIONS TO VISIBILITY.

  * THESE STATIONS DO NOT REPORT WEATHER SUCH AS RAIN...SNOW OR FOG.

NEZ001>004-019>022-054>056-060900-
NEBRASKA PANHANDLE

CITY           SKY/WX    TMP DP  RH WIND       PRES   REMARKS
SCOTTSBLUFF    LGT RAIN  52  32  46 E9        29.73F
ALLIANCE       LGT RAIN  52  52 100 SE10      29.73
CHADRON        LGT RAIN  54  51  90 SE5       29.75F
SIDNEY         FOG       53  52  96 E15       29.71F VSB 1
$$

NEZ057>060-069>072-079>082-060900-
SOUTHWEST NEBRASKA

CITY           SKY/WX    TMP DP  RH WIND       PRES   REMARKS
NORTH PLATTE   CLOUDY    59  56  89 SE9       29.76F
IMPERIAL       CLOUDY    54  52  93 SE14      29.73F
MCCOOK         CLOUDY    60  57  89 SE16G24   29.73F
$$

NEZ005>010-023>029-035>040-094-060900-
NORTH CENTRAL NEBRASKA

CITY           SKY/WX    TMP DP  RH WIND       PRES   REMARKS
VALENTINE      CLOUDY    57  54  89 SE15      29.79F
AINSWORTH      LGT RAIN  57  56  97 SE15      29.80F
BROKEN BOW     CLOUDY    59  57  93 SE16      29.80F
ORD            CLOUDY    59  56  89 SE13      29.82F
$$

NEZ041-046>049-061>064-073>077-083>087-060900-
SOUTH CENTRAL NEBRASKA

CITY           SKY/WX    TMP DP  RH WIND       PRES   REMARKS
GRAND ISLAND   CLOUDY    61  57  87 SE14G25   29.85F
AURORA         CLOUDY    61  61 100 SE12      29.86F
HASTINGS       CLOUDY    61  58  90 SE15      29.84F
KEARNEY *      CLOUDY    61  57  88 SE16G24   29.82F
$$

NEZ011>018-030>034-042>045-060900-
NORTHEAST NEBRASKA

CITY           SKY/WX    TMP DP  RH WIND       PRES   REMARKS
NORFOLK        CLOUDY    62  60  93 SE10      29.89F
COLUMBUS *     CLOUDY    63  55  77 SE12      29.91F
TEKAMAH        CLOUDY    66  59  78 S17       29.93F
$$

NEZ050>053-065>068-078-088>093-060900-
SOUTHEAST NEBRASKA

CITY           SKY/WX    TMP DP  RH WIND       PRES   REMARKS
LINCOLN        CLOUDY    65  60  84 SE17      29.91F
OMAHA EPPLEY   LGT RAIN  65  62  90 S20       29.94F
FALLS CITY     CLOUDY    62  62 100 E7        29.92F
$$

NEZ044-045-051>053-067-060900-
OMAHA AREA

CITY           SKY/WX    TMP DP  RH WIND       PRES   REMARKS
OMAHA EPPLEY   LGT RAIN  65  62  90 S20       29.94F
OFFUTT AFB     CLOUDY    63  62  94 SE8       29.93F
$$


USA.gov is the U.S. government's official web portal to all federal, state and local government web resources and services.